Location: Unspecified
(33.6682°S, 0.0000°E)
Time: 06:38:44
(UTC+00:00)

Vanguard 2 Rocket - Pass Details

Date: 20 June 2019
Orbit: 554 x 3326 km, 32.9° (Epoch: 15 July)

Event Time Altitude Azimuth Distance (km) Brightness Sun altitude
Rises 15:38:34 0° 266° (W) 3,334 10.5 13.0°
Reaches altitude 10° 15:42:00 10° 284° (WNW) 2,107 10.2 12.5°
Maximum altitude 15:45:06 18° 327° (NNW) 1,479 9.8 12.0°
Drops below altitude 10° 15:47:52 10° 12° (NNE) 1,835 8.9 11.5°
Sets 15:50:34 0° 33° (NNE) 2,731 9.5 11.1°
